"Period start","avg(HW err(1)/warn(2) (#))","avg(Visibility (m))","avg(Weather code (#))","avg(Precip intensity (mm/h))","min(HW err(1)/warn(2) (#))","max(HW err(1)/warn(2) (#))","std(HW err(1)/warn(2) (#))","med(HW err(1)/warn(2) (#))","min(Visibility (m))","max(Visibility (m))","std(Visibility (m))","med(Visibility (m))","min(Weather code (#))","max(Weather code (#))","std(Weather code (#))","med(Weather code (#))","min(Precip intensity (mm/h))","max(Precip intensity (mm/h))","std(Precip intensity (mm/h))","med(Precip intensity (mm/h))"
2017-04-03 00:00:00,2,27129,0,0.00,2,2,0,2,10910,50000,13600,27100,0,0,0,0,0.00,0.00,0.00,0.00
2017-04-03 00:10:00,2,38658,0,0.00,2,2,0,2,21912,49656,9862,42320,0,0,0,0,0.00,0.00,0.00,0.00
2017-04-03 00:20:00,2,18242,0,0.00,2,2,0,2,14684,22792,2617,17417,0,0,0,0,0.00,0.00,0.00,0.00
2017-04-03 00:30:00,2,26167,0,0.00,2,2,0,2,14123,42920,8483,25675,0,0,0,0,0.00,0.00,0.00,0.00
2017-04-03 00:40:00,2,33646,0,0.00,2,2,0,2,21963,50000,7841,32818,0,0,0,0,0.00,0.00,0.00,0.00
2017-04-03 00:50:00,2,36398,0,0.00,2,2,0,2,24077,48239,8481,36358,0,0,0,0,0.00,0.00,0.00,0.00
2017-04-03 01:00:00,2,31796,0,0.00,2,2,0,2,17488,46464,7696,33905,0,0,0,0,0.00,0.00,0.00,0.00
2017-04-03 01:10:00,2,37999,0,0.00,2,2,0,2,24591,48306,6459,39504,0,0,0,0,0.00,0.00,0.00,0.00
2017-04-03 01:20:00,2,41595,0,0.00,2,2,0,2,28433,50000,6814,43214,0,0,0,0,0.00,0.00,0.00,0.00
2017-04-03 01:30:00,2,43551,0,0.00,2,2,0,2,33415,50000,5382,42452,0,0,0,0,0.00,0.00,0.00,0.00
2017-04-03 01:40:00,2,35332,0,0.00,2,2,0,2,23973,44204,5391,35826,0,0,0,0,0.00,0.00,0.00,0.00
2017-04-03 01:50:00,2,40483,0,0.00,2,2,0,2,28083,50000,6312,38849,0,0,0,0,0.00,0.00,0.00,0.00
2017-04-03 02:00:00,2,40650,0,0.00,2,2,0,2,29144,50000,8776,42866,0,0,0,0,0.00,0.00,0.00,0.00
2017-04-03 02:10:00,2,34879,0,0.00,2,2,0,2,25233,44524,6579,35162,0,0,0,0,0.00,0.00,0.00,0.00
2017-04-03 02:20:00,2,38500,0,0.00,2,2,0,2,25140,48892,6733,39778,0,0,0,0,0.00,0.00,0.00,0.00
2017-04-03 02:30:00,2,37734,0,0.00,2,2,0,2,26015,50000,7784,39701,0,0,0,0,0.00,0.00,0.00,0.00
2017-04-03 02:40:00,2,43563,0,0.00,2,2,0,2,31045,50000,6710,45242,0,0,0,0,0.00,0.00,0.00,0.00
2017-04-03 02:50:00,2,45763,0,0.00,2,2,0,2,37293,50000,4637,47808,0,0,0,0,0.00,0.00,0.00,0.00
2017-04-03 03:00:00,2,42636,0,0.00,2,2,0,2,34804,50000,4762,41926,0,0,0,0,0.00,0.00,0.00,0.00
2017-04-03 03:10:00,2,42036,0,0.00,2,2,0,2,37508,50000,3982,40912,0,0,0,0,0.00,0.00,0.00,0.00
2017-04-03 03:20:00,2,42623,0,0.00,2,2,0,2,29542,50000,7839,45996,0,0,0,0,0.00,0.00,0.00,0.00
2017-04-03 03:30:00,2,44677,0,0.00,2,2,0,2,35026,50000,4787,45631,0,0,0,0,0.00,0.00,0.00,0.00
2017-04-03 03:40:00,2,46680,0,0.00,2,2,0,2,38357,50000,4083,48740,0,0,0,0,0.00,0.00,0.00,0.00
2017-04-03 03:50:00,2,47069,0,0.00,2,2,0,2,34613,50000,4589,49354,0,0,0,0,0.00,0.00,0.00,0.00
2017-04-03 04:00:00,2,45565,0,0.00,2,2,0,2,35943,50000,5412,48244,0,0,0,0,0.00,0.00,0.00,0.00
2017-04-03 04:10:00,2,46885,0,0.00,2,2,0,2,37975,50000,3840,48338,0,0,0,0,0.00,0.00,0.00,0.00
2017-04-03 04:20:00,2,46710,0,0.00,2,2,0,2,35870,50000,4483,49204,0,0,0,0,0.00,0.00,0.00,0.00
2017-04-03 04:30:00,2,45603,0,0.00,2,2,0,2,39395,50000,4204,46316,0,0,0,0,0.00,0.00,0.00,0.00
2017-04-03 04:40:00,2,42641,0,0.00,2,2,0,2,34749,50000,5946,42780,0,0,0,0,0.00,0.00,0.00,0.00
2017-04-03 04:50:00,2,45100,0,0.00,2,2,0,2,23204,50000,7503,47489,0,0,0,0,0.00,0.00,0.00,0.00
2017-04-03 05:00:00,2,10783,31,0.03,2,2,0,2,2828,20890,6359,8956,0,77,29,40,0.00,0.15,0.05,0.00
2017-04-03 05:10:00,2,41121,15,0.00,2,2,0,2,13278,50000,12903,47974,0,77,31,0,0.00,0.00,0.00,0.00
2017-04-03 05:20:00,2,28264,0,0.00,2,2,0,2,5640,50000,20353,26028,0,0,0,0,0.00,0.00,0.00,0.00
2017-04-03 05:30:00,2,6317,8,0.00,2,2,0,2,4003,14539,2865,5578,0,10,4,10,0.00,0.00,0.00,0.00
2017-04-03 05:40:00,2,9572,10,0.00,2,2,0,2,2650,17474,4960,9960,10,10,0,10,0.00,0.00,0.00,0.00
2017-04-03 05:50:00,2,7584,10,0.00,2,2,0,2,3625,10023,2151,8539,10,10,0,10,0.00,0.00,0.00,0.00
2017-04-03 06:00:00,2,9340,10,0.00,2,2,0,2,6489,13049,2114,9924,10,10,0,10,0.00,0.00,0.00,0.00
2017-04-03 06:10:00,2,12257,8,0.00,2,2,0,2,6792,19524,3940,11600,0,10,4,10,0.00,0.00,0.00,0.00
2017-04-03 06:20:00,2,11946,0,0.00,2,2,0,2,7519,17753,3072,12288,0,0,0,0,0.00,0.00,0.00,0.00
2017-04-03 06:30:00,2,11394,0,0.00,2,2,0,2,5011,20104,4076,11329,0,0,0,0,0.00,0.00,0.00,0.00
2017-04-03 06:40:00,2,28272,0,0.00,2,2,0,2,10851,45913,12319,26792,0,0,0,0,0.00,0.00,0.00,0.00
2017-04-03 06:50:00,2,35926,0,0.00,2,2,0,2,12478,48130,11186,39922,0,0,0,0,0.00,0.00,0.00,0.00
2017-04-03 07:00:00,2,46461,0,0.00,2,2,0,2,41708,50000,2925,46876,0,0,0,0,0.00,0.00,0.00,0.00
2017-04-03 07:10:00,2,37265,0,0.00,2,2,0,2,19202,50000,8633,39052,0,0,0,0,0.00,0.00,0.00,0.00
2017-04-03 07:20:00,2,36076,0,0.00,2,2,0,2,20302,48187,8342,36235,0,0,0,0,0.00,0.00,0.00,0.00
2017-04-03 07:30:00,2,43959,0,0.00,2,2,0,2,38761,50000,3709,43060,0,0,0,0,0.00,0.00,0.00,0.00
2017-04-03 07:40:00,2,41400,0,0.00,2,2,0,2,30460,50000,6459,42002,0,0,0,0,0.00,0.00,0.00,0.00
2017-04-03 07:50:00,2,35511,0,0.00,2,2,0,2,26080,41244,4562,37502,0,0,0,0,0.00,0.00,0.00,0.00
2017-04-03 08:00:00,2,27426,0,0.00,2,2,0,2,12048,43511,11305,27822,0,0,0,0,0.00,0.00,0.00,0.00
2017-04-03 08:10:00,2,33335,0,0.00,2,2,0,2,24652,46235,5565,31386,0,0,0,0,0.00,0.00,0.00,0.00
2017-04-03 08:20:00,2,35861,0,0.00,2,2,0,2,19092,49413,8370,35214,0,0,0,0,0.00,0.00,0.00,0.00
2017-04-03 08:30:00,2,43585,0,0.00,2,2,0,2,34901,49431,4468,43924,0,0,0,0,0.00,0.00,0.00,0.00
2017-04-03 08:40:00,2,31381,0,0.00,2,2,0,2,22115,46580,7744,29480,0,0,0,0,0.00,0.00,0.00,0.00
2017-04-03 08:50:00,2,31077,0,0.00,2,2,0,2,18353,46521,9517,28554,0,0,0,0,0.00,0.00,0.00,0.00
2017-04-03 09:00:00,2,19775,0,0.00,2,2,0,2,12235,28826,5263,18496,0,0,0,0,0.00,0.00,0.00,0.00
2017-04-03 09:10:00,2,27646,0,0.00,2,2,0,2,18225,40524,6939,25754,0,0,0,0,0.00,0.00,0.00,0.00
2017-04-03 09:20:00,2,30028,0,0.00,2,2,0,2,21981,43738,6103,28042,0,0,0,0,0.00,0.00,0.00,0.00
2017-04-03 09:30:00,2,43533,0,0.00,2,2,0,2,37248,50000,5069,43342,0,0,0,0,0.00,0.00,0.00,0.00
2017-04-03 09:40:00,2,47236,0,0.00,2,2,0,2,41089,50000,3194,48612,0,0,0,0,0.00,0.00,0.00,0.00
2017-04-03 09:50:00,2,41475,0,0.00,2,2,0,2,20032,50000,9801,44740,0,0,0,0,0.00,0.00,0.00,0.00
2017-04-03 10:00:00,2,33326,0,0.00,2,2,0,2,22409,40756,4898,34100,0,0,0,0,0.00,0.00,0.00,0.00
2017-04-03 10:10:00,2,41912,0,0.00,2,2,0,2,33090,50000,6062,39404,0,0,0,0,0.00,0.00,0.00,0.00
2017-04-03 10:20:00,2,50000,0,0.00,2,2,0,2,50000,50000,0,50000,0,0,0,0,0.00,0.00,0.00,0.00
2017-04-03 10:30:00,2,49070,0,0.00,2,2,0,2,42617,50000,2174,50000,0,0,0,0,0.00,0.00,0.00,0.00
2017-04-03 10:40:00,2,47469,0,0.00,2,2,0,2,42248,50000,2960,49317,0,0,0,0,0.00,0.00,0.00,0.00
2017-04-03 10:50:00,2,49710,0,0.00,2,2,0,2,48507,50000,491,50000,0,0,0,0,0.00,0.00,0.00,0.00
2017-04-03 11:00:00,2,48094,0,0.00,2,2,0,2,39205,50000,3816,50000,0,0,0,0,0.00,0.00,0.00,0.00
2017-04-03 11:10:00,2,50000,0,0.00,2,2,0,2,50000,50000,0,50000,0,0,0,0,0.00,0.00,0.00,0.00
2017-04-03 11:20:00,2,49847,0,0.00,2,2,0,2,48474,50000,458,50000,0,0,0,0,0.00,0.00,0.00,0.00
2017-04-03 11:30:00,2,48886,0,0.00,2,2,0,2,44405,50000,2228,50000,0,0,0,0,0.00,0.00,0.00,0.00
2017-04-03 11:40:00,2,49781,0,0.00,2,2,0,2,48517,50000,471,50000,0,0,0,0,0.00,0.00,0.00,0.00
2017-04-03 11:50:00,2,50000,0,0.00,2,2,0,2,50000,50000,0,50000,0,0,0,0,0.00,0.00,0.00,0.00
2017-04-03 12:00:00,2,50000,0,0.00,2,2,0,2,50000,50000,0,50000,0,0,0,0,0.00,0.00,0.00,0.00
2017-04-03 12:10:00,2,50000,0,0.00,2,2,0,2,50000,50000,0,50000,0,0,0,0,0.00,0.00,0.00,0.00
2017-04-03 12:20:00,2,50000,0,0.00,2,2,0,2,50000,50000,0,50000,0,0,0,0,0.00,0.00,0.00,0.00
2017-04-03 12:30:00,2,50000,0,0.00,2,2,0,2,50000,50000,0,50000,0,0,0,0,0.00,0.00,0.00,0.00
2017-04-03 12:40:00,2,50000,0,0.00,2,2,0,2,50000,50000,0,50000,0,0,0,0,0.00,0.00,0.00,0.00
2017-04-03 12:50:00,2,50000,0,0.00,2,2,0,2,50000,50000,0,50000,0,0,0,0,0.00,0.00,0.00,0.00
2017-04-03 13:00:00,2,50000,0,0.00,2,2,0,2,50000,50000,0,50000,0,0,0,0,0.00,0.00,0.00,0.00
2017-04-03 13:10:00,2,50000,0,0.00,2,2,0,2,50000,50000,0,50000,0,0,0,0,0.00,0.00,0.00,0.00
2017-04-03 13:20:00,2,50000,0,0.00,2,2,0,2,50000,50000,0,50000,0,0,0,0,0.00,0.00,0.00,0.00
2017-04-03 13:30:00,2,50000,0,0.00,2,2,0,2,50000,50000,0,50000,0,0,0,0,0.00,0.00,0.00,0.00
2017-04-03 13:40:00,2,50000,0,0.00,2,2,0,2,50000,50000,0,50000,0,0,0,0,0.00,0.00,0.00,0.00
2017-04-03 13:50:00,2,50000,0,0.00,2,2,0,2,50000,50000,0,50000,0,0,0,0,0.00,0.00,0.00,0.00
2017-04-03 14:00:00,2,50000,0,0.00,2,2,0,2,50000,50000,0,50000,0,0,0,0,0.00,0.00,0.00,0.00
2017-04-03 14:10:00,2,50000,0,0.00,2,2,0,2,50000,50000,0,50000,0,0,0,0,0.00,0.00,0.00,0.00
2017-04-03 14:20:00,2,50000,0,0.00,2,2,0,2,50000,50000,0,50000,0,0,0,0,0.00,0.00,0.00,0.00
2017-04-03 14:30:00,2,50000,0,0.00,2,2,0,2,50000,50000,0,50000,0,0,0,0,0.00,0.00,0.00,0.00
2017-04-03 14:40:00,2,50000,0,0.00,2,2,0,2,50000,50000,0,50000,0,0,0,0,0.00,0.00,0.00,0.00
2017-04-03 14:50:00,2,50000,0,0.00,2,2,0,2,50000,50000,0,50000,0,0,0,0,0.00,0.00,0.00,0.00
2017-04-03 15:00:00,2,50000,0,0.00,2,2,0,2,50000,50000,0,50000,0,0,0,0,0.00,0.00,0.00,0.00
2017-04-03 15:10:00,2,50000,0,0.00,2,2,0,2,50000,50000,0,50000,0,0,0,0,0.00,0.00,0.00,0.00
2017-04-03 15:20:00,2,50000,0,0.00,2,2,0,2,50000,50000,0,50000,0,0,0,0,0.00,0.00,0.00,0.00
2017-04-03 15:30:00,2,49954,0,0.00,2,2,0,2,49535,50000,140,50000,0,0,0,0,0.00,0.00,0.00,0.00
2017-04-03 15:40:00,2,50000,0,0.00,2,2,0,2,50000,50000,0,50000,0,0,0,0,0.00,0.00,0.00,0.00
2017-04-03 15:50:00,2,50000,0,0.00,2,2,0,2,50000,50000,0,50000,0,0,0,0,0.00,0.00,0.00,0.00
2017-04-03 16:00:00,2,50000,0,0.00,2,2,0,2,50000,50000,0,50000,0,0,0,0,0.00,0.00,0.00,0.00
2017-04-03 16:10:00,2,50000,0,0.00,2,2,0,2,50000,50000,0,50000,0,0,0,0,0.00,0.00,0.00,0.00
2017-04-03 16:20:00,2,50000,0,0.00,2,2,0,2,50000,50000,0,50000,0,0,0,0,0.00,0.00,0.00,0.00
2017-04-03 16:30:00,2,50000,0,0.00,2,2,0,2,50000,50000,0,50000,0,0,0,0,0.00,0.00,0.00,0.00
2017-04-03 16:40:00,2,50000,0,0.00,2,2,0,2,50000,50000,0,50000,0,0,0,0,0.00,0.00,0.00,0.00
2017-04-03 16:50:00,2,50000,0,0.00,2,2,0,2,50000,50000,0,50000,0,0,0,0,0.00,0.00,0.00,0.00
2017-04-03 17:00:00,2,49999,0,0.00,2,2,0,2,49987,50000,4,50000,0,0,0,0,0.00,0.00,0.00,0.00
2017-04-03 17:10:00,2,49777,0,0.00,2,2,0,2,47773,50000,668,50000,0,0,0,0,0.00,0.00,0.00,0.00
2017-04-03 17:20:00,2,50000,0,0.00,2,2,0,2,50000,50000,0,50000,0,0,0,0,0.00,0.00,0.00,0.00
2017-04-03 17:30:00,2,50000,0,0.00,2,2,0,2,50000,50000,0,50000,0,0,0,0,0.00,0.00,0.00,0.00
2017-04-03 17:40:00,2,50000,0,0.00,2,2,0,2,50000,50000,0,50000,0,0,0,0,0.00,0.00,0.00,0.00
2017-04-03 17:50:00,2,50000,0,0.00,2,2,0,2,50000,50000,0,50000,0,0,0,0,0.00,0.00,0.00,0.00
2017-04-03 18:00:00,2,50000,0,0.00,2,2,0,2,50000,50000,0,50000,0,0,0,0,0.00,0.00,0.00,0.00
2017-04-03 18:10:00,2,50000,0,0.00,2,2,0,2,50000,50000,0,50000,0,0,0,0,0.00,0.00,0.00,0.00
2017-04-03 18:20:00,2,50000,0,0.00,2,2,0,2,50000,50000,0,50000,0,0,0,0,0.00,0.00,0.00,0.00
2017-04-03 18:30:00,2,50000,0,0.00,2,2,0,2,50000,50000,0,50000,0,0,0,0,0.00,0.00,0.00,0.00
2017-04-03 18:40:00,2,50000,0,0.00,2,2,0,2,50000,50000,0,50000,0,0,0,0,0.00,0.00,0.00,0.00
2017-04-03 18:50:00,2,50000,0,0.00,2,2,0,2,50000,50000,0,50000,0,0,0,0,0.00,0.00,0.00,0.00
2017-04-03 19:00:00,2,50000,0,0.00,2,2,0,2,50000,50000,0,50000,0,0,0,0,0.00,0.00,0.00,0.00
2017-04-03 19:10:00,2,50000,0,0.00,2,2,0,2,50000,50000,0,50000,0,0,0,0,0.00,0.00,0.00,0.00
2017-04-03 19:20:00,2,49997,0,0.00,2,2,0,2,49966,50000,10,50000,0,0,0,0,0.00,0.00,0.00,0.00
2017-04-03 19:30:00,2,50000,0,0.00,2,2,0,2,50000,50000,0,50000,0,0,0,0,0.00,0.00,0.00,0.00
2017-04-03 19:40:00,2,50000,0,0.00,2,2,0,2,50000,50000,0,50000,0,0,0,0,0.00,0.00,0.00,0.00
2017-04-03 19:50:00,2,50000,0,0.00,2,2,0,2,50000,50000,0,50000,0,0,0,0,0.00,0.00,0.00,0.00
2017-04-03 20:00:00,2,50000,0,0.00,2,2,0,2,50000,50000,0,50000,0,0,0,0,0.00,0.00,0.00,0.00
2017-04-03 20:10:00,2,50000,0,0.00,2,2,0,2,50000,50000,0,50000,0,0,0,0,0.00,0.00,0.00,0.00
2017-04-03 20:20:00,2,50000,0,0.00,2,2,0,2,50000,50000,0,50000,0,0,0,0,0.00,0.00,0.00,0.00
2017-04-03 20:30:00,2,50000,0,0.00,2,2,0,2,50000,50000,0,50000,0,0,0,0,0.00,0.00,0.00,0.00
2017-04-03 20:40:00,2,50000,0,0.00,2,2,0,2,50000,50000,0,50000,0,0,0,0,0.00,0.00,0.00,0.00
2017-04-03 20:50:00,2,49981,0,0.00,2,2,0,2,49811,50000,57,50000,0,0,0,0,0.00,0.00,0.00,0.00
2017-04-03 21:00:00,2,49935,0,0.00,2,2,0,2,49506,50000,150,50000,0,0,0,0,0.00,0.00,0.00,0.00
2017-04-03 21:10:00,2,49720,0,0.00,2,2,0,2,48283,50000,522,50000,0,0,0,0,0.00,0.00,0.00,0.00
2017-04-03 21:20:00,2,49850,0,0.00,2,2,0,2,48496,50000,451,50000,0,0,0,0,0.00,0.00,0.00,0.00
2017-04-03 21:30:00,2,50000,0,0.00,2,2,0,2,50000,50000,0,50000,0,0,0,0,0.00,0.00,0.00,0.00
2017-04-03 21:40:00,2,48723,0,0.00,2,2,0,2,44394,50000,2157,50000,0,0,0,0,0.00,0.00,0.00,0.00
2017-04-03 21:50:00,2,50000,0,0.00,2,2,0,2,50000,50000,0,50000,0,0,0,0,0.00,0.00,0.00,0.00
2017-04-03 22:00:00,2,49420,0,0.00,2,2,0,2,45276,50000,1418,50000,0,0,0,0,0.00,0.00,0.00,0.00
2017-04-03 22:10:00,2,49764,0,0.00,2,2,0,2,47669,50000,698,50000,0,0,0,0,0.00,0.00,0.00,0.00
2017-04-03 22:20:00,2,50000,0,0.00,2,2,0,2,50000,50000,0,50000,0,0,0,0,0.00,0.00,0.00,0.00
2017-04-03 22:30:00,2,47992,0,0.00,2,2,0,2,40468,50000,3333,49994,0,0,0,0,0.00,0.00,0.00,0.00
2017-04-03 22:40:00,2,47432,0,0.00,2,2,0,2,38638,50000,3724,49206,0,0,0,0,0.00,0.00,0.00,0.00
2017-04-03 22:50:00,2,45731,0,0.00,2,2,0,2,37848,50000,4213,47045,0,0,0,0,0.00,0.00,0.00,0.00
2017-04-03 23:00:00,2,46330,0,0.00,2,2,0,2,32961,50000,5826,48924,0,0,0,0,0.00,0.00,0.00,0.00
2017-04-03 23:10:00,2,45865,0,0.00,2,2,0,2,30869,50000,6168,50000,0,0,0,0,0.00,0.00,0.00,0.00
2017-04-03 23:20:00,2,42989,0,0.00,2,2,0,2,31730,50000,6568,43868,0,0,0,0,0.00,0.00,0.00,0.00
2017-04-03 23:30:00,2,39594,0,0.00,2,2,0,2,29994,50000,7671,38375,0,0,0,0,0.00,0.00,0.00,0.00
2017-04-03 23:40:00,2,46912,0,0.00,2,2,0,2,37778,50000,4143,48452,0,0,0,0,0.00,0.00,0.00,0.00
2017-04-03 23:50:00,2,41328,0,0.00,2,2,0,2,21082,50000,9928,45751,0,0,0,0,0.00,0.00,0.00,0.00
